#timestamp,LO_Frequency,Hit,StdDev 
1626811215.2,286046998.5,N
1626811235.0,286046998.1,N
1626811235.9,286046998.1,N
1626811255.8,286047001.2,N
1626811275.6,286047001.2,N
1626811295.4,286047000.2,N
1626811315.3,286047000.0,N
1626811335.1,286047000.9,N
1626811355.9,286047000.4,N
1626811375.7,286047000.1,N
1626811395.5,286046999.7,N
1626811415.4,286047002.8,N
1626811435.2,286047002.1,N
1626811455.0,286047002.1,N
1626811455.9,286047002.1,N
1626811475.8,286047002.6,N
1626811495.6,286047002.1,N
1626811515.4,286047001.6,N
1626811535.3,286047002.1,N
1626811555.1,286047002.2,N
1626811575.9,286047002.0,N
1626811595.7,286047002.3,N
1626811615.5,286047001.6,N
1626811635.4,286047002.2,N
1626811655.2,286047003.7,N
1626811675.1,286047004.1,N
1626811676.0,286047004.1,N
1626811695.8,286047003.9,N
1626811715.6,286047002.1,N
1626811735.5,286047002.8,N
1626811755.3,286046999.7,N
1626811775.1,286047002.1,N
1626811795.9,286047001.9,N
1626811815.7,286047002.0,N
1626811835.6,286047001.8,N
1626811855.4,286047002.4,N
1626811875.2,286047001.4,N
1626811895.1,286047004.1,Y
1626811896.0,286047004.1,P
1626811915.8,286047002.8,N
1626811935.7,286047000.3,N
1626811955.5,286046999.9,N
1626811975.3,286047001.2,N
1626811995.2,286047000.0,N
1626812015.0,286047002.4,N
1626812015.9,286047002.4,N
1626812035.7,286047000.2,N
1626812055.6,286046999.7,N
1626812075.4,286047000.2,N
1626812095.3,286047000.8,N
1626812115.1,286046998.3,N
1626812116.0,286046998.3,N
1626812135.8,286046999.3,N
1626812155.7,286046998.4,N
1626812175.5,286046998.6,N
1626812195.4,286046998.8,N
1626812215.2,286047000.7,N
1626812235.0,286047000.0,N
1626812235.9,286047000.0,N
1626812255.8,286047000.9,N
1626812275.6,286046999.3,N
1626812295.4,286046999.0,N
1626812315.3,286046999.3,N
1626812335.1,286046998.3,N
1626812355.9,286046998.9,N
1626812375.7,286046998.4,N
1626812395.5,286046999.1,N
1626812415.4,286046998.3,N
1626812435.2,286046998.9,N
1626812455.0,286046998.4,N
1626812455.9,286046998.4,N
1626812475.8,286046998.8,N
1626812495.6,286046999.5,N
1626812515.5,286046998.2,N
1626812535.3,286046999.4,N
1626812555.1,286046999.6,N
1626812575.9,286046998.8,N
1626812595.7,286047000.5,N
1626812615.5,286047002.4,N
1626812635.4,286047001.3,N
1626812655.2,286047003.0,N
1626812675.1,286047005.0,Y
1626812676.0,286047005.0,P
1626812695.8,286047007.3,N
1626812715.6,286047004.5,N
1626812735.5,286047007.1,N
1626812755.3,286047006.6,N
1626812775.1,286047008.0,N
1626812795.9,286047008.3,Y
1626812815.7,286047002.9,P
1626812835.6,286047005.9,P
1626812855.4,286047004.8,P
1626812875.2,286047007.6,Y
1626812895.1,286047002.8,P
1626812896.0,286047002.8,N
1626812915.8,286047000.0,N
1626812935.7,286047002.5,N
1626812955.5,286047002.6,N
1626813005.4,286047000.6,E
1626813015.3,286047000.9,N
1626813035.1,286046999.9,P
1626813055.9,286047002.1,P
1626813075.7,286047001.4,N
1626813095.5,286047002.6,Y
1626813115.4,286046999.9,P
1626813135.2,286047001.0,N
1626813155.1,286046998.2,P
1626813156.0,286046998.2,N
1626813175.8,286046998.7,N
1626813195.6,286046997.0,N
1626813215.5,286046999.6,N
1626813235.3,286046997.8,N
1626813255.2,286046997.2,N
1626813275.9,286046995.3,Y
1626813295.7,286046997.1,P
1626813315.6,286046996.1,P
1626813335.4,286046996.3,P
1626813355.3,286046995.6,Y
1626813375.1,286046999.4,P
1626813376.0,286046999.4,N
1626813395.8,286046999.4,N
1626813415.7,286046999.5,N
1626813435.5,286046999.3,N
1626813455.3,286046998.6,N
1626813475.2,286046999.0,N
1626813495.0,286046999.2,N
1626813495.9,286046999.2,N
1626813515.8,286046996.5,Y
1626813535.6,286046999.0,P
1626813555.4,286046999.1,P
1626813575.3,286046996.6,P
1626813595.1,286046996.7,Y
1626813615.9,286046998.8,P
1626813635.7,286046998.3,P
1626813655.5,286046999.1,P
1626813675.4,286046999.3,N
1626813695.2,286046996.5,Y
1626813715.0,286046998.8,P
1626813715.9,286046998.8,P
1626813735.8,286046998.6,P
1626813755.6,286046996.5,Y
1626813775.5,286046998.3,P
1626813795.3,286047000.5,N
1626813815.1,286046998.6,N
1626813835.9,286047001.2,N
1626813855.7,286046998.7,N
1626813875.5,286046998.2,N
1626813895.4,286046998.9,N
1626813915.2,286046998.9,N
1626813935.1,286046998.7,N
1626813936.0,286046998.7,N
1626813955.8,286046998.8,N
1626813975.6,286046998.1,N
1626813995.5,286046998.8,N
1626814015.3,286046999.5,N
1626814035.1,286046999.5,N
1626814055.9,286046999.2,N
1626814075.7,286046999.3,N
1626814095.6,286047000.8,N
1626814115.4,286047001.2,N
1626814135.2,286047000.8,N
1626814155.1,286047000.5,N
1626814156.0,286047000.5,N
1626814175.8,286047000.1,N
1626814195.6,286047001.5,N
1626814215.5,286047002.1,N
1626814235.3,286046999.7,N
1626814255.2,286047000.6,N
1626814275.9,286046998.1,N
1626814295.7,286047000.3,N
1626814315.6,286047001.1,N
1626814335.4,286047000.9,N
1626814355.3,286047000.0,N
1626814375.1,286047000.0,N
1626814376.0,286047000.0,N
1626814395.8,286047000.1,N
1626814415.7,286047000.9,N
1626814435.5,286047002.4,N
1626814455.3,286047002.4,N
1626814475.2,286047002.2,N
1626814495.0,286047002.6,N
1626814495.9,286047002.6,N
1626814515.8,286047002.5,N
1626814535.6,286047001.5,N
1626814555.4,286047002.5,N
1626814575.3,286047000.3,N
1626814595.1,286047000.4,N
1626814615.9,286047002.0,N
1626814635.7,286047003.0,N
1626814655.5,286047003.8,Y
1626814675.4,286047000.2,P
1626814695.2,286047002.4,P
1626814715.0,286047001.5,N
1626814715.9,286047001.5,N
1626814735.8,286047001.4,N
1626814755.6,286046999.8,N
1626814775.5,286047000.0,N
1626814795.3,286047000.2,N
